This is the latest recevied weather packets stored in our database for station/object K0QED. If no packets are shown the sender has not sent any weather packets the latest 10 day(s).
| Time | Temp. | Humidity | Pressure | Rain* | Wind** | Luminosity | Snow |
|---|---|---|---|---|---|---|---|
| 1788574058 | 18.89° C | 57% | 1024.4 hPa | 0 mm | - | 0 W/m² | - |
| 1788573753 | 18.89° C | 62% | 1024.2 hPa | 0 mm | - | 0 W/m² | - |
| 1788573452 | 17.22° C | 65% | 1024.4 hPa | 0 mm | - | 0 W/m² | - |
| 1788573147 | 16.11° C | 80% | 1024.4 hPa | 0 mm | - | 0 W/m² | - |
| 1788572846 | 16.67° C | 82% | 1024 hPa | 3.05 mm | - | 0 W/m² | - |
| 1788572541 | 18.89° C | 73% | 1024.4 hPa | 4.83 mm | - | 0 W/m² | - |
| 1788572237 | 22.78° C | 57% | 1024.1 hPa | 1.78 mm | - | 0 W/m² | - |
| 1788571933 | 23.89° C | 38% | 1024.1 hPa | 0 mm | - | 0 W/m² | - |
| 1788571628 | 23.89° C | 36% | 1023.9 hPa | 0 mm | - | 0 W/m² | - |
| 1788571324 | 23.89° C | 36% | 1024 hPa | 0 mm | - | 1 W/m² | - |
| 1788571020 | 23.89° C | 36% | 1024 hPa | 0 mm | - | 1 W/m² | - |
| 1788570716 | 23.89° C | 35% | 1023.6 hPa | 0 mm | - | 3 W/m² | - |
| 1788570416 | 24.44° C | 35% | 1023.7 hPa | 0 mm | - | 6 W/m² | - |
| 1788570111 | 24.44° C | 35% | 1024.1 hPa | 0 mm | - | 8 W/m² | - |
| 1788569808 | 24.44° C | 35% | 1023.9 hPa | 0 mm | - | 8 W/m² | - |
| 1788569503 | 24.44° C | 35% | 1023.7 hPa | 0 mm | - | 10 W/m² | - |
| 1788569197 | 25° C | 34% | 1023.6 hPa | 0 mm | - | 10 W/m² | - |
| 1788568892 | 25° C | 34% | 1023.7 hPa | 0 mm | - | 10 W/m² | - |
| 1788568588 | 25° C | 33% | 1023.6 hPa | 0 mm | - | 12 W/m² | - |
| 1788568284 | 25.56° C | 32% | 1023.5 hPa | 0 mm | - | 15 W/m² | - |
| 1788567979 | 25.56° C | 32% | 1023.7 hPa | 0 mm | - | 17 W/m² | - |
| 1788567674 | 25.56° C | 32% | 1023.6 hPa | 0 mm | - | 17 W/m² | - |
| 1788567369 | 26.11° C | 32% | 1023.4 hPa | 0 mm | - | 22 W/m² | - |
| 1788567069 | 26.11° C | 31% | 1023.7 hPa | 0 mm | - | 21 W/m² | - |
| 1788566764 | 26.67° C | 31% | 1023.7 hPa | 0 mm | - | 21 W/m² | - |
* Rain latest hour (hover to see other rain measurements)
** Current wind speed in m/s (hover to see current wind gust speed)